Meath Environmental Platform

Observations for Trim Market St

Time AQI Temp °C Hum % Pres Pa CO μg/m³ H₂S μg/m³ NO μg/m³ NO₂ μg/m³ O₃ μg/m³ SO₂ μg/m³ PM1 μg/m³ PM2.5 μg/m³ PM10 μg/m³
Sunday 16 August 2026
17:11 2 21.6 62 57,452 0 0 1.18 10.58 67.37 0 0.71 2.96 4.14
17:10 2 21.6 62 57,463 0 0 1.21 11.64 74.99 0 0.71 2.46 4.14
17:07 2 21.6 61 57,492 0 0 1.96 11.82 74.31 0 0.71 2.97 4.14
17:06 2 21.6 61 57,495 0 0 2.03 11.29 61.98 0 0.71 2.46 3.46
17:05 2 21.6 61 57,494 0 0 1.76 9.96 63.35 0 0.71 1.96 4.14
17:03 2 21.6 62 57,478 0 0 1.37 10.2 62.55 0 0.71 2.46 3.47
17:02 2 21.6 62 57,472 0 0 1.31 9.83 57.9 0 0.71 1.96 2.79
17:01 2 21.6 62 57,469 0 0 1.17 9.83 61.01 0 0 1.46 2.79
16:59 2 21.6 62 57,455 0 0 1.19 11.37 66.72 0 0 2.45 3.47
16:57 2 21.6 62 57,448 0 0 1.21 9.7 58.99 0 0 1.96 2.79
16:56 2 21.6 62 57,453 0 0 1.41 11.57 72.46 0 0 2.45 4.15
16:55 2 21.6 62 57,453 0 0 1.59 11.38 63.93 0 0 2.46 3.47
16:51 2 21.6 62 57,447 0 0 1.2 9.82 60.36 0 0.71 2.95 4.15
16:41 2 21.6 62 57,416 0 0 1.18 11.44 63.88 0 0 2.46 3.47
16:40 2 21.6 61 57,428 0 0 1.17 10.83 62.06 0 0.71 2.46 3.46
16:39 2 21.6 61 57,437 0 0 1.17 10.99 62.81 0 0 2.47 3.46
16:38 2 21.6 61 57,446 0.01 0 1.17 10.7 63.15 0 0 1.97 2.78
16:37 2 21.6 61 57,454 0.01 0 1.18 11.59 58.85 0 1.43 2.47 3.45
16:35 2 21.7 61 57,481 0.08 0 1.22 10.27 55.12 0 0.71 2.47 3.45
16:34 2 21.7 61 57,495 0 0 1.25 9.78 59.92 0 1.43 2.97 4.13